Regional Weather Roundup
Issued by NWS New Orleans/Baton Rouge, LA

Home | Current Version | Previous Version | Text Only | Print | Product List | Glossary On
Versions: 1 2 3 4 5 6 7 8 9 10 11 12 13 14 15 16 17 18 19 20 21 22 23 24 25 26 27 28 29 30 31 32 33 34 35 36 37 38 39 40 41 42 43 44 45 46 47 48 49 50
000
ASUS44 KLIX 270910
RWRLIX
NEW ORLEANS REGIONAL WEATHER ROUNDUP
NATIONAL WEATHER SERVICE NEW ORLEANS LA
300 AM CST SAT DEC 27 2014

NOTE: "FAIR" INDICATES FEW OR NO CLOUDS BELOW 12,000 FEET WITH NO
      SIGNIFICANT WEATHER AND/OR OBSTRUCTIONS TO VISIBILITY.
      SKY/WX - SKY CONDITION AND SIGNIFICANT WEATHER.
      TMP - AIR TEMPERATURE.     DP    - DEWPOINT TEMPERATURE.
      RH  - RELATIVE HUMIDITY.   PRES  - PRESSURE.
      HI  - HEAT INDEX.          WCI   - WIND CHILL INDEX.

*  THESE STATIONS ARE NOT NWS OR FAA STATIONS AND ARE NOT UNDER
   NWS QUALITY CONTROL.

LAZ038-040-048-061>063-065>067-069-271000-
SOUTHEAST LOUISIANA

CITY           SKY/WX    TMP DP  RH WIND       PRES   REMARKS
N.O. AUDUBON   NOT AVBL
N.O. INTL ARPT CLOUDY    66  61  84 W14       30.14R
N.O. LAKEFRONT CLOUDY    64  60  87 SE13      30.11S
N.O. DOWNTOWN* CLOUDY    66  59  77 SE9       30.11S
SLIDELL        CLOUDY    65  60  84 SE9G16    30.11S
BATON ROUGE    CLOUDY    60  58  92 E9        30.11F
BOOTHVILLE     CLOUDY    65  63  93 E6        30.12S
BELLE CHASSE   LGT RAIN  64  61  90 SE10      30.10S
BOGALUSA*        N/A     63  55  75 CALM      30.15R
GALLIANO*      CLOUDY    68  65  90 MISG      30.10S
NEW ROADS*     CLOUDY    60  59  97 E10G16    30.10F
GONZALES*      LGT RAIN  60  60 100 CALM      30.11F
HAMMOND*       NOT AVBL
HOUMA*         LGT RAIN  67  65  95 SE5       30.10S
PORT FOURCHON* CLOUDY    68  66  94 SE12      30.13R FOG

$$

MSZ070-080>082-271000-
SOUTHERN MISSISSIPPI

CITY           SKY/WX    TMP DP  RH WIND       PRES   REMARKS
MCCOMB         CLOUDY    57  56  96 E3        30.15S
GULFPORT       CLOUDY    63  57  81 E17       30.13F
BILOXI         PTCLDY    60  55  86 SE9       30.14F
PASCAGOULA     CLOUDY    57  51  80 E3        30.17S

$$

COASTAL OBSERVATIONS
LAKE AND NEARSHORE STATIONS

STATION/POSITION TIME  TEMP    WIND        PRES    WAVE
                       AIR SEA DIR/SP/G            HT/PER
                 (UTC) (F)     (DEG/KT/KT) (MB)    (FT/S)
PASCAGOULA       0900   61      80/  8/ 12 1020.7
WAVELAND YACHT   0900   61     120/ 14/ 17 1019.6
GRAND ISLE       0900   67 62  130/  7/ 11 1019.8
SOUTHWEST PASS   0900   68                 1019.6
NEW CANAL        0900   62 57  310/  2/  7 1020.4
SHELL BEACH      0900   63 59  110/ 13/ 15 1019.7

OFFSHORE STATIONS

STATION/POSITION TIME  TEMP    WIND        PRES    WAVE
                       AIR SEA DIR/SP/G            HT/PER
                 (UTC) (F)     (DEG/KT/KT) (MB)    (FT/S)
64 S DAUPHIN ISL 0900   70 74  130/ 21/ 25 1019.9    5/ 6

$$



USA.gov is the U.S. government's official web portal to all federal, state and local government web resources and services.